Home > Weather > Seoul > Past weeks

Flag for South Korea Weather for the Past 2 Weeks in Seoul, South Korea

Now
61 °F

Partly cloudy.


Feels Like: 61 °F
Forecast: 56 / 73 °F
Wind: 8 mph from South

Location: Seoul / Kimp'O International Airport

Current Time: Apr 30, 2016 at 10:18:58 PM

Latest Report: Apr 30, 2016 at 10:00 PM


Visibility: N/A

Pressure: 29.89 "Hg

Humidity: 42%

Dew Point: 37 °F

Location of SeoulLocation

Historic Weather in Seoul — Graph

°F

Seoul Temperature Yesterday

Maximum temperature yesterday: 70 °F (at 1:00 PM)
Minimum temperature yesterday: 48 °F (at 6:00 AM)
Average temperature yesterday: 60 °F

High & Low Weather Summary for the Past Weeks

 TemperatureHumidityPressure
High84 °F (Apr 26, 4:00 PM)93% (Apr 24, 6:00 AM)30.27 "Hg (Apr 24, 6:00 AM)
Low41 °F (Apr 19, 6:00 AM)8% (Apr 25, 12:00 PM)29.12 "Hg (Apr 17, 3:00 AM)
Average57 °F55%29.89 "Hg
* Reported Apr 15 9:00 PM — Apr 30 9:00 PM, Seoul, Weather by CustomWeather, © 2016

Note: Actual official high and low records may vary slightly from our data, if they occured in-between our weather recording intervals... More about our weather records

Advertising

Seoul Weather History for the Previous 24 Hours

Scroll right to see more
 ConditionsComfort  
Time TempWeatherWind HumidityBarometerVisibility
9:00 PM
Sat, Apr 30
61 °FPartly cloudy.8 mph42%29.86 "HgN/A
8:00 PM63 °FPartly cloudy.14 mph39%29.83 "HgN/A
7:00 PM64 °FBroken clouds.15 mph37%29.83 "Hg4 mi
6:00 PM66 °FPartly sunny.13 mph30%29.83 "Hg4 mi
5:00 PM64 °FPartly sunny.15 mph30%29.86 "Hg4 mi
4:00 PM68 °FPartly sunny.16 mph30%29.86 "Hg4 mi
3:00 PM68 °FBroken clouds.18 mph33%29.83 "Hg4 mi
2:00 PM70 °FBroken clouds.18 mph35%29.83 "Hg4 mi
1:00 PM68 °FBroken clouds.20 mph38%29.83 "Hg4 mi
12:00 PM68 °FBroken clouds.18 mph35%29.86 "Hg4 mi
11:00 AM64 °FBroken clouds.14 mph40%29.86 "Hg4 mi
10:00 AM63 °FBroken clouds.8 mph39%29.89 "Hg4 mi
9:00 AM61 °FPartly sunny.6 mph39%29.89 "Hg4 mi
8:00 AM57 °FScattered clouds.8 mph44%29.86 "Hg4 mi
7:00 AM55 °FBroken clouds.9 mph51%29.86 "Hg4 mi
6:00 AM54 °FBroken clouds.7 mph58%29.89 "Hg4 mi
5:00 AM52 °FPassing clouds.7 mph67%29.89 "Hg4 mi
4:00 AM52 °FPassing clouds.9 mph72%29.89 "Hg4 mi
3:00 AM48 °FClear.7 mph76%29.89 "Hg4 mi
2:00 AM50 °FClear.5 mph76%29.89 "Hg4 mi
1:00 AM50 °FClear.5 mph76%29.89 "Hg4 mi
12:00 AM50 °FClear.3 mph71%29.92 "Hg4 mi
11:00 PM
Fri, Apr 29
54 °FClear.6 mph67%29.89 "Hg4 mi
10:00 PM55 °FClear.3 mph67%29.89 "Hg4 mi
Weather by CustomWeather, © 2016

See weather overviewHow to use our weather pages